Location: Chemnitz
(49.5500°N, 11.5830°E)
Time: 22:13:03
(UTC+02:00)

ISS - Visible Passes

Search period start: 25 September 2020 00:00
Search period end: 05 October 2020 00:00
Orbit: 419 x 420 km, 51.6° (Epoch: 26 September)

Date Brightness Start Highest point End Pass type
(mag) Time Alt. Az. Time Alt. Az. Time Alt. Az.
25 Sep -3.4 20:58:25 10° W 21:01:45 58° N 21:02:08 53° NNE visible
26 Sep -3.4 20:10:58 10° W 20:14:19 59° N 20:16:31 19° ENE visible
26 Sep -1.5 21:47:56 10° WNW 21:49:28 25° WNW 21:49:28 25° WNW visible
27 Sep -3.6 21:00:31 10° WNW 21:03:50 68° N 21:03:50 68° N visible
28 Sep -3.5 20:13:04 10° WNW 20:16:26 61° N 20:18:11 25° E visible
28 Sep -1.1 21:49:58 10° WNW 21:51:09 20° W 21:51:09 20° W visible
29 Sep -3.4 19:25:37 10° W 19:28:57 58° N 19:32:18 10° E visible
29 Sep -3.5 21:02:31 10° WNW 21:05:30 65° W 21:05:30 65° W visible
30 Sep -3.8 20:15:05 10° WNW 20:18:28 83° NNE 20:19:53 32° ESE visible
30 Sep -0.8 21:52:07 10° W 21:52:51 14° W 21:52:51 14° W visible
01 Oct -3.6 19:27:38 10° WNW 19:31:00 69° NNE 19:34:17 11° E visible
01 Oct -2.6 21:04:33 10° W 21:07:15 37° SW 21:07:15 37° SW visible
02 Oct -3.4 20:17:01 10° WNW 20:20:21 57° SSW 20:21:42 31° SE visible
03 Oct -3.7 19:29:33 10° WNW 19:32:55 78° SSW 19:36:12 11° ESE visible
03 Oct -1.5 21:06:52 10° W 21:09:10 19° SW 21:09:10 19° SW visible
04 Oct -2.1 20:19:06 10° W 20:22:02 27° SW 20:23:45 18° S visible
